Location: San Vito
(41.8833°N, 12.9833°E)
Time: 07:50:38
(UTC+00:00)

Cosmos 1459 Rocket - Pass Details

Date: 17 November 2019
Orbit: 938 x 999 km, 83.0° (Epoch: 09 December)

Event Time Altitude Azimuth Distance (km) Brightness Sun altitude
Rises 04:10:34 0° 187° (S) 3,619 7.0 -20.2°
Reaches altitude 10° 04:13:02 10° 188° (S) 2,686 6.3 -19.8°
Maximum altitude 04:19:12 85° 277° (W) 981 3.9 -18.6°
Drops below altitude 10° 04:25:31 10° 6° (N) 2,747 6.3 -17.5°
Sets 04:28:04 0° 8° (N) 3,707 7.0 -17.0°
